C/2003 T4 (LINEAR)

Epoch 2005 Apr. 20.0 TT = JDT 2453480.5  

T 2005 Apr. 3.64842 TT                                  Nakano

q   0.8498731            (2000.0)            P               Q

z  -0.0001507      Peri.  181.64822     +0.06966916     +0.05438250

 +/-0.0000029      Node    93.90349     -0.90345045     +0.42683293

e   1.0001281      Incl.   86.76135     -0.42299348     -0.90269386

From 1052 observations 2003 Oct. 13-2006 Feb. 24, mean residual 0".81.

   Nongravitational parameters Y1 = +8.16 +/- 0.03, Y2 = +0.3060 +/- 0.0123.

   Sublimating molecule = CO (or N2) using Yabushita's theory (MN 283, 347).

   (1/a)org.= +0.000274, (1/a)fut.= -0.000819 (+/-0.000003), Q= 8.

Residuals in seconds of arc 

2003/                     040424 349  0.2+  0.1+    041221 048  2.2-  2.0+  

031013 704  0.4-  0.1+    040424 J76  0.1+  0.4-    041221 048  1.8-  1.3+  

031013 704  0.5-  1.2+    040424 J76  0.3+  0.2+    041221 048  1.5-  1.7+  

031013 704  1.7-  1.1+    040424 J76  0.4+  0.3+    041221 048  0.7-  1.3+  

031013 704 (0.1-  2.3+)   040506 213  0.0   1.0-    041225 349  1.4+  1.0-  

031014 651  0.6+  0.9+    040506 213  1.3+  0.5+    041225 349  1.5+  0.6-  

031014 651  1.4-  0.2+    040506 213  0.9+  0.5+    041225 349  1.4+  0.6-  

031014 651  1.0-  0.8+    040528 A32  0.3+  0.2-    041225 349  1.3+  0.8-  

031014 926  1.6-  0.8+    040528 A32  0.1-  0.0     2005/                   

031014 926  0.5-  0.6+    040528 A32  0.2+  0.5-    050101 411  0.8+  0.4-  

031014 926  1.1-  0.2+    040528 A32  0.7+  0.5+    050101 411  0.9+  0.2-  

031015 G90  0.6-  1.0+    040604 349  0.6+  1.5+    050101 411  1.1+  0.5-  

031015 G90  0.6-  0.7+    040604 349  0.3+  1.1+    050101 411  1.0+  0.3-  

031015 G90  0.4-  0.8+    040604 349  0.3+  1.0+    050102 349  1.2+  0.8-  

031015 926  0.7-  0.8+    040608 442 (2.5-  0.9+)   050102 349  1.2+  0.8-  

031015 926  0.7-  0.6+    040608 442 (5.0-  2.2+)   050102 349  1.3+  0.6-  

031015 926  0.6-  1.1+    040608 442 (1.3+  2.5-)   050102 349  1.3+  0.9-  

031015 673  0.7-  0.7+    040611 A32  0.3+  0.1+    050108 213  0.6+  0.7-  

031015 673  0.9-  0.9+    040611 A32  1.1-  1.2+    050108 213  0.7+  0.5-  

031015 673  0.7-  0.5+    040612 A32  0.4-  0.0     050108 213  0.8+  0.9-  

031015 673  0.5-  1.3+    040612 A32  0.9-  0.2-    050110 215  1.0+  1.0-  

031015 673  0.4-  0.2+    040612 A32  0.2-  0.1-    050110 215  1.2+  0.9-  

031015 673  0.5-  1.5+    040613 945  0.7+  0.6+    050110 215  1.4+  0.8-  

031016 J95  0.6-  1.2+    040613 945  0.4+  0.3+    050116 349  1.5+  0.9-  

031016 J95  1.5-  1.3+    040613 945  0.0   0.5+    050116 349  1.4+  1.0-  

031016 J95  1.0-  1.4+    040613 945  0.4-  0.5+    050116 349  1.3+  1.1-  

031016 704  0.4+  1.0+    040613 945  0.3+  0.7+    050116 349  1.4+  1.1-  

031016 704  0.8+  0.9+    040622 442 (4.3+  4.0-)   050117 048  0.7-  0.6+  

031016 704  0.9+  1.0+    040623 J76  0.3-  0.3+    050117 048  0.7-  0.8+  

031017 J95  0.7-  0.8+    040623 J76  0.2+  0.4+    050117 048  0.4-  0.8+  

031017 J95  1.6-  0.3+    040623 J76  0.3+  0.8+    050117 048  0.4-  0.7+  

031017 J95  0.6-  0.7+    040625 A18  1.2-  0.7-    050117 048  0.8-  0.8+  

031019 372  1.3-  0.1+    040626 213  1.4-  0.3-    050121 355  1.3+  1.4-  

031020 785 (2.7-  3.0-)   040626 213  1.1-  1.1-    050121 355  1.4+  1.7-  

031020 785  1.7-  0.8+    040626 213  0.3-  0.4-    050121 355  0.8+  1.6-  

031020 785 (1.7-  3.0+)   040628 A32  0.2-  0.0     050121 355  1.0+  1.6-  

031022 372  0.5+  0.0     040628 A32  0.0   0.3+    050121 411  1.0+  0.9-  

031023 360  0.6+  0.5+    040628 A32  0.5-  0.1-    050121 D83  1.9+  1.8-  

031023 360  0.2-  0.7+    040707 J76  0.9-  1.4-    050121 411  1.2+  0.7-  

031023 360  0.4+  0.3+    040707 J76  0.8-  0.4+    050121 D83  1.4+  1.6-  

031024 372  0.5-  0.0     040707 J76  0.7-  1.6+    050121 349  1.4+  0.9-  

031024 A46  1.1+  0.9-    040707 442 (2.3-  0.3-)   050121 D83  1.9+  1.8-  

031024 A46  1.1+  0.3+    040707 442 (3.0+  0.5-)   050121 411  1.2+  0.7-  

031024 A46  0.1-  0.4+    040707 442  0.2-  0.3+    050121 349  1.1+  0.8-  

031024 A46  0.4-  0.5+    040710 130  0.2+  0.5+    050121 D83  1.3+  1.7-  

031024 A46  0.1+  0.3-    040710 130  0.3-  0.4-    050121 411  1.3+  0.8-  

031024 A46  0.4-  1.8-    040710 130  0.8-  0.1-    050121 349  1.1+  0.8-  

031028 372  0.7-  0.8-    040710 130  0.3+  0.1+    050121 349  1.2+  0.9-  

031029 349  0.4-  1.5+    040711 D83  1.0-  0.7+    050126 349  0.8+  0.8-  

031029 349  0.3-  0.1+    040711 D83  0.5-  0.3+    050126 349  0.8+  0.8-  

031029 349  1.2-  1.4+    040711 D83  1.0-  0.9-    050126 349  1.1+  1.2-  

031029 349  0.0   0.1-    040714 561  1.3-  0.2-    050126 349  0.8+  0.9-  

031030 360  0.5-  0.1+    040714 561 (2.3+  0.5+)   050204 411  1.2+  0.9-  

031030 360  0.3-  0.3+    040714 561 (5.3+  1.7-)   050204 349  0.9+  1.3-  

031030 360  0.6-  0.1-    040716 D74  0.8-  0.9-    050204 349  1.1+  1.3-  

031101 213  1.3-  1.1-    040716 D74  0.4-  0.1+    050204 411  1.1+  0.7-  

031101 213 (4.7-  1.7+)   040716 A18 (4.6-  3.8-)   050204 349  0.9+  1.5-  

031102 204  0.2-  0.3+    040717 213  0.3-  0.7+    050204 349  1.2+  1.2-  

031102 204  0.2-  0.6+    040717 213  0.9-  0.4+    050204 411  1.2+  0.7-  

031102 204  0.0   0.5+    040717 213  0.5+  0.2+    050204 411  1.1+  0.8-  

031103 785  0.9-  0.2-    040719 349  0.3+  0.9-    050206 048  0.3+  0.1-  

031103 785 (0.9+  3.3-)   040719 349  0.2+  0.7-    050206 048  0.9+  0.0   

031103 785  0.4+  0.6-    040720 048  0.4+  1.2+    050206 048  0.3+  0.2-  

031106 704  0.7+  1.0+    040720 048  0.1-  0.8+    050206 048  0.5+  0.4-  

031106 704  1.7-  1.5+    040720 048  0.3-  1.6+    050206 048  0.9+  0.1+  

031106 704  0.3+  1.5+    040720 048  1.1-  0.7+    050211 355  0.9+  0.9-  

031109 A46  1.3-  0.3+    040722 048  0.2+  0.4+    050211 355  0.7+  1.0-  

031109 A46  0.9-  0.2-    040722 048  0.7-  0.7+    050211 355  0.6+  1.0-  

031109 A46  0.2-  0.7+    040722 048  0.8-  0.7+    050211 411  1.1+  0.9-  

031109 A46  0.2-  0.0     040722 048  1.2-  0.6+    050211 411  1.2+  0.9-  

031109 A46  0.1+  0.6-    040722 048  1.1-  0.5+    050211 349  0.7+  1.0-  

031109 A46  0.3+  0.0     040723 A54 (0.5-  8.7+)   050211 349  0.6+  1.0-  

031110 785 (0.2+  3.3+)   040727 442 (4.6-  0.7-)   050211 349  0.6+  1.1-  

031110 785  0.3-  1.7+    040727 442  1.3-  2.2-    050211 349  0.7+  1.0-  

031114 213 (2.7-  2.1+)   040727 A32  0.1+  0.3+    050211 411  0.9+  0.9-  

031114 213 (2.4-  1.1+)   040727 A32  0.2-  0.1+    050211 411  1.3+  0.9-  

031117 340  0.3+  1.4+    040727 A32  0.4-  0.2+    050213 355  1.0+  0.9-  

031117 340  0.6-  0.8+    040727 A32  0.2-  0.4+    050213 355  1.0+  1.0-  

031117 340  1.3-  0.4-    040731 048  0.0   0.4+    050213 355  1.0+  1.1-  

031117 360  0.6-  0.1-    040731 048  0.2-  0.3+    050222 349  0.6+  0.5-  

031117 360  0.4-  0.1+    040731 048  0.3-  0.4+    050222 349  0.8+  0.1-  

031117 349  1.5-  0.2-    040731 048  0.4-  0.5+    050225 349  0.7+  0.3-  

031117 349  0.9-  0.2-    040731 048  0.6-  0.3+    050225 349  0.5+  0.4-  

031117 349  1.0-  0.8+    040802 048  1.5-  1.0+    050225 349  0.3+  0.4-  

031117 349  0.2-  0.8+    040802 048  1.0-  1.1+    050225 349  0.5+  0.2-  

031119 H41  2.1-  0.6+    040802 048  0.8-  1.2+    050301 349  0.8+  0.1-  

031119 H41  1.6-  1.6+    040802 048  1.0-  1.4+    050301 349  0.9+  0.0   

031119 H41  0.7-  2.1+    040802 048  0.8-  1.4+    050301 349  0.9+  0.1+  

031120 H41  1.9-  1.5-    040804 048  0.9-  0.7+    050301 349  1.2+  0.2-  

031120 H41  1.0-  0.1-    040804 048  0.2+  0.9+    050305 349  0.6+  0.3-  

031120 H41  0.4-  1.4+    040804 048  0.1+  1.0+    050305 349  0.5+  0.3-  

031121 349  2.1-  0.7-    040805 048  0.9+  0.0     050305 349  0.4+  0.4-  

031121 349 (2.3-  0.9-)   040805 048  0.2+  0.1+    050305 349  0.6+  0.4-  

031121 349  1.4-  0.7-    040805 048  0.0   0.4+    050306 349  0.6+  0.6-  

031121 349  1.3-  0.9-    040805 048  0.4-  0.4+    050306 349  0.5+  0.4-  

031123 340  1.3+  1.6-    040805 048  0.6-  0.4+    050306 349  0.6+  0.5-  

031123 340  0.2+  0.5-    040807 A54  0.0   0.4-    050306 349  0.6+  0.4-  

031123 340  1.6-  1.7+    040807 A54  0.0   0.4-    050312 213  0.5-  0.7+  

031124 785  1.6-  0.4+    040808 048 (2.3-  0.3+)   050312 213  0.7+  0.2+  

031124 785 (1.3-  2.4+)   040808 048  2.0-  0.6+    050312 213  0.1+  0.4+  

031124 785  0.8-  0.6+    040808 048  1.6-  0.5+    050312 213  1.0+  0.3+  

031124 785  0.5-  0.1-    040808 048  0.7-  0.8+    050315 349  1.0+  0.1+  

031125 H41  1.0-  0.0     040809 A33  0.2+  0.3-    050315 349  0.9+  0.2+  

031125 H41  1.3-  0.4+    040809 A33  0.2+  0.2-    050315 349  0.8+  0.2+  

031125 H41  1.6-  0.4+    040814 A32  0.0   0.3+    050315 349  0.8+  0.4+  

031128 H41  1.1-  1.5+    040814 A32  0.3+  0.2+    050317 349  0.7+  0.2-  

031128 H41  1.2-  0.0     040814 A32  0.0   0.5+    050317 349  0.7+  0.3-  

031128 H41  0.7-  0.6+    040814 A32  0.4+  0.1+    050317 349  0.4+  0.2-  

031129 213  0.4-  1.0-    040819 213  0.1+  0.0     050317 349  0.6+  0.3-  

031129 213  1.2-  0.6-    040819 213  0.0   1.1+    050319 D83  0.5+  0.2-  

031129 176  0.0   0.3-    040819 A32  0.1+  0.4+    050319 D83  0.0   0.2-  

031129 176  0.0   0.2-    040819 A32  0.1-  0.3+    050319 D83  0.3+  0.0   

031129 176  0.1+  0.1-    040819 A32  0.1+  0.2+    050319 D83  0.7-  0.4+  

031129 176  0.2+  0.0     040819 A18  0.2-  0.1-    050320 349  1.2+  0.3-  

031129 104  0.2-  0.1+    040822 A32  0.1+  0.0     050320 349  0.9+  0.0   

031129 104  0.3+  0.0     040822 A32  0.3+  0.3-    050320 349  1.1+  0.3-  

031129 104  0.3-  0.1+    040822 A32  0.0   0.0     050320 349  1.4+  0.4-  

031129 A46  0.2+  0.8-    040822 A32  0.1-  0.0     050325 349  0.5+  0.6+  

